weather station
Area: 11014 km2
The highest point: Tok (865 m.s.l.)
Total stations: 59
Stations online: 56
Stations offline: 3
Current weather
14°C

Meteorological map - weather stations in Středočeský

. The meteorological maps show weather information from WARIO weather stations

Weather stations Středočeský

 UpdatesNameStatusTemperatureHumidityWind speedWind direction
28.5.2022 16:45Barochov14.2 °C42.4 %4.0 m/s NW
28.5.2022 16:45Beroun14.2 °C41.2 %3.7 m/s S
28.5.2022 16:44Bořanovice15.4 °C44.1 %2.8 m/s NW
28.5.2022 16:45Jílové u Prahy - Borek17.9 °C40.8 %1.8 m/s NE
28.5.2022 16:44Břešťany17.2 °C34.9 %3.0 m/s NW
28.5.2022 16:44Brandýs nad Labem16.9 °C35.4 %2.3 m/s E
28.5.2022 16:44Králův Dvůr14.9 °C45.1 %3.4 m/s NW
28.5.2022 16:44Chotětov17.3 °C37.9 %3.7 m/s E
28.5.2022 16:44Přítoky14.8 °C38.1 %2.2 m/s SE
28.5.2022 16:44Dobřejovice14.1 °C43.9 %2.2 m/s W
28.5.2022 16:44Dolní Břežany14.7 °C46.5 %2.6 m/s SW
28.5.2022 16:44Dolní Jirčany13.6 °C50.7 %3.5 m/s W
28.5.2022 16:44Dolní Břežany14.2 °C34.6 %3.6 m/s N
28.5.2022 16:44Holubice15.4 °C38.4 %4.9 m/s E
28.5.2022 16:44Hostín u Vojkovic16.2 °C46.5 %3.8 m/s SW
28.5.2022 16:45Hovorčovice17.2 °C100.0 %2.1 m/s NW
28.5.2022 16:45Sedlčany16.4 °C52.1 %0.0 m/s W
28.5.2022 16:44Jiřetice12.8 °C44.7 %3.1 m/s W
28.5.2022 16:44Kojetice16.3 °C100.0 %5.9 m/s NW
28.5.2022 16:45Kostelec nad Černými lesy13.4 °C47.2 %2.6 m/s NW
28.5.2022 16:45Krásná Hora nad Vltavou14.7 °C51.9 %1.3 m/s NW
28.5.2022 16:44Květnice16.1 °C45.4 %2.6 m/s E
28.5.2022 16:45Libeř16.8 °C35.4 %0.0 m/s W
28.5.2022 16:44Krušovice14.4 °C45.0 %3.8 m/s S
28.5.2022 16:44Zdice17.1 °C42.6 %2.3 m/s N
28.5.2022 16:45Zeleneč16.0 °C43.7 %3.4 m/s W
28.5.2022 16:45Jince14.0 °C47.7 %4.3 m/s NE
28.5.2022 16:44Vestec15.5 °C36.7 %3.7 m/s N
28.5.2022 16:44Dolní Jirčany14.3 °C49.8 %2.1 m/s SE
28.5.2022 16:44Cetyně12.7 °C54.5 %1.8 m/s W
28.5.2022 16:45Vysoký Újezd15.7 °C39.1 %2.4 m/s N
28.5.2022 16:44Olešná13.1 °C55.8 %0.0 m/s N
28.5.2022 14:04Srby12.9 °C43.8 %3.3 m/s W
28.5.2022 16:44Kralupy nad Vltavou15.5 °C35.4 %3.0 m/s NW
28.5.2022 16:45Mrač17.1 °C29.7 %1.7 m/s SW
19.5.2022 21:07Velvary21.9 °C45.8 %0.9 m/s N
28.5.2022 16:44Mladá Boleslav14.2 °C46.0 %0.0 m/s E
28.5.2022 16:44Milín12.6 °C49.3 %1.1 m/s S
28.5.2022 16:45Líbeznice-34.7 °C %5.0 m/s NW
28.5.2022 16:45Mnichovice13.7 °C38.7 %2.6 m/s N
28.5.2022 16:45Mnichovice14.2 °C40.3 %3.0 m/s NW
28.5.2022 16:45Hořovice14.5 °C41.8 %5.0 m/s SW
28.5.2022 16:44Ostrá15.4 °C43.2 %5.9 m/s E
28.5.2022 16:44Petrovice14.4 °C48.7 %1.1 m/s SW
28.5.2022 16:44Suchodol14.3 °C53.0 %1.6 m/s NW
28.5.2022 16:44Říčany14.0 °C43.0 %2.4 m/s NW
12.5.2022 14:20Semice-40.0 °C %0.0 m/s SW
28.5.2022 16:44Slaný16.6 °C77.2 %1.5 m/s SE
28.5.2022 16:45Višňová14.0 °C40.9 %1.4 m/s E
28.5.2022 16:45Svojetice °C %2.3 m/s NW
28.5.2022 16:45Třebsko11.8 °C55.2 %2.8 m/s NW
28.5.2022 16:45Unhošť15.1 °C40.2 %1.1 m/s SW
28.5.2022 16:44Vrbčany16.3 °C52.7 %2.3 m/s W
28.5.2022 16:44Všešímy12.8 °C47.4 %1.8 m/s NE
28.5.2022 16:45Všetaty15.3 °C37.8 %5.6 m/s NW
28.5.2022 16:44Zaječice14.1 °C43.0 %1.6 m/s NW
28.5.2022 16:44Zdice17.0 °C38.6 %1.4 m/s S
28.5.2022 16:44Zduchovice13.5 °C46.3 %3.3 m/s N
28.5.2022 16:44Divišov13.0 °C54.9 %2.0 m/s SW
Email notifications
Enter your email address to subscribe to notifications about news at warioweather.com. Your email address will not be used for any purpose other than sending these emails and will not be provided to any third party. The subscription can be ended at any time.
All data are only indicative. The portal administrator has no responsibility for potentially incorrect data and related consequences. Publishing or further sharing of content from www.warioweather.com is only allowed with written consent from WANET s.r.o.